DW5977 Weather Reports


Display with metric or nautical units.
time (UTC)temp
F
wind
direction
speed
MPH
gust
MPH
rain 1hr
in
rain 24hr
in
rain mn
in
humidity
%
barometer
mb
20200401092009 37 31 2.0 5.0 0.00 0.02 0.00 80 1012.3
20200401090510 38 47 2.0 5.0 0.00 0.02 0.00 81 1012.2
20200401090010 38 49 1.0 5.0 0.00 0.02 0.00 81 1012.1
20200401085509 38 44 1.0 3.0 0.00 0.02 0.00 81 1012.2
20200401085010 38 40 2.0 5.0 0.00 0.02 0.00 80 1012.1
20200401083509 38 31 3.0 8.0 0.00 0.02 0.00 79 1012.3
20200401082522 38 38 3.0 6.0 0.00 0.02 0.00 79 1012.3
20200401074009 39 46 3.0 9.0 0.00 0.02 0.00 77 1012.4
20200401073509 39 42 4.0 13.0 0.00 0.02 0.00 77 1012.5
20200401073010 40 38 3.0 13.0 0.00 0.02 0.00 77 1012.5
20200401072509 40 43 4.0 13.0 0.00 0.02 0.00 76 1012.5
20200401071510 40 32 4.0 9.0 0.00 0.02 0.00 76 1012.5
20200401065509 41 35 4.0 9.0 0.00 0.02 0.00 76 1012.4
20200401064510 41 45 2.0 6.0 0.00 0.02 0.00 77 1012.6
20200401064009 41 42 3.0 6.0 0.00 0.02 0.00 77 1012.7
20200401062509 41 35 3.0 6.0 0.00 0.02 0.00 76 1012.8
20200401062009 42 36 2.0 7.0 0.00 0.02 0.00 77 1012.8
20200401061009 42 36 2.0 6.0 0.00 0.02 0.00 78 1012.9
20200401060509 42 42 2.0 5.0 0.00 0.02 0.00 78 1012.8
20200401055508 42 40 2.0 5.0 0.00 0.02 0.00 79 1012.9
20200401055009 42 38 1.0 5.0 0.00 0.02 0.00 79 1012.8
20200401054509 42 34 1.0 4.0 0.00 0.02 0.00 80 1013.0
20200401052009 42 55 2.0 6.0 0.00 0.02 0.00 79 1013.0
20200401050509 42 41 3.0 9.0 0.00 0.02 0.00 79 1013.1
20200401050010 42 45 3.0 9.0 0.00 0.02 0.00 79 1013.2
20200401045509 42 41 3.0 8.0 0.00 0.02 0.00 79 1013.3
20200401042009 43 51 4.0 11.0 0.00 0.02 0.00 82 1013.4
20200401041009 43 48 5.0 11.0 0.00 0.02 0.00 83 1013.4
20200401040509 43 49 4.0 11.0 0.00 0.02 0.00 85 1013.5
20200401040011 43 52 3.0 8.0 0.00 0.02 0.02 86 1013.6
20200401035509 42 54 3.0 6.0 0.00 0.02 0.02 87 1013.6
20200401034008 42 49 1.0 4.0 0.00 0.02 0.02 89 1013.8
20200401033010 42 63 1.0 4.0 0.00 0.02 0.02 90 1013.8
20200401032008 42 60 1.0 4.0 0.00 0.02 0.02 90 1013.9
20200401031509 42 52 1.0 4.0 0.00 0.02 0.02 90 1013.9
20200401030009 42 56 2.0 5.0 0.00 0.02 0.02 90 1013.9
20200401025509 42 58 2.0 5.0 0.00 0.02 0.02 90 1014.0
20200401025008 42 62 3.0 6.0 0.00 0.02 0.02 90 1014.0
20200401024509 42 58 3.0 6.0 0.00 0.02 0.02 90 1014.0
20200401023509 42 48 2.0 6.0 0.00 0.03 0.02 90 1014.2
20200401023010 42 48 3.0 8.0 0.00 0.03 0.02 90 1014.3
20200401022509 42 48 3.0 8.0 0.00 0.03 0.02 90 1014.2
20200401022009 42 51 3.0 8.0 0.00 0.03 0.02 90 1014.3
20200401021008 42 48 4.0 9.0 0.00 0.04 0.02 90 1014.3
20200401020509 42 51 4.0 10.0 0.00 0.04 0.02 90 1014.2
20200401014509 42 50 2.0 9.0 0.00 0.05 0.02 92 1014.3
20200401013509 42 50 4.0 10.0 0.00 0.05 0.02 93 1014.4
20200401012508 42 47 3.0 9.0 0.00 0.06 0.02 93 1014.4
20200401010509 42 47 4.0 10.0 0.00 0.07 0.02 93 1014.4
20200401010009 42 47 4.0 10.0 0.00 0.08 0.02 93 1014.3
20200401005509 42 51 5.0 11.0 0.00 0.08 0.02 93 1014.4
20200401004509 42 48 5.0 12.0 0.00 0.08 0.02 93 1014.4
20200401003509 42 46 4.0 10.0 0.00 0.09 0.02 93 1014.5
20200401003009 43 49 4.0 10.0 0.00 0.09 0.02 93 1014.4
20200401002508 43 47 3.0 9.0 0.00 0.09 0.02 93 1014.4
20200401002009 43 46 3.0 10.0 0.00 0.09 0.02 93 1014.4
20200401001008 43 42 5.0 11.0 0.00 0.09 0.02 92 1014.3
20200401000515 43 47 5.0 11.0 0.00 0.09 0.02 97 1014.4
20200401000009 43 39 5.0 10.0 0.00 0.10 0.02 92 1014.3
20200331235009 43 37 5.0 11.0 0.00 0.10 0.02 92 1014.2
20200331234509 43 39 5.0 11.0 0.00 0.11 0.02 91 1014.2
20200331234008 43 36 6.0 12.0 0.00 0.11 0.02 92 1014.2
20200331233009 44 33 4.0 9.0 0.00 0.11 0.02 91 1014.1
20200331231510 44 41 4.0 9.0 0.00 0.12 0.02 91 1014.0
20200331231009 44 35 5.0 10.0 0.00 0.13 0.02 91 1014.0
20200331230010 44 43 5.0 12.0 0.00 0.13 0.02 91 1013.9
20200331225008 44 44 4.0 9.0 0.00 0.14 0.02 90 1013.8
20200331224509 45 47 4.0 12.0 0.00 0.14 0.02 90 1013.8
20200331222008 45 39 4.0 10.0 0.00 0.16 0.02 90 1013.6
20200331221509 45 37 3.0 10.0 0.00 0.16 0.02 90 1013.8
20200331220508 45 46 3.0 10.0 0.00 0.16 0.02 90 1013.6
20200331215509 45 42 4.0 12.0 0.00 0.17 0.02 90 1013.6
20200331214008 45 39 5.0 10.0 0.00 0.17 0.02 90 1013.4
20200331213508 45 36 6.0 13.0 0.00 0.17 0.02 90 1013.4
20200331212508 46 47 6.0 14.0 0.00 0.17 0.02 88 1013.3
20200331210509 47 47 5.0 12.0 0.00 0.17 0.02 87 1013.2
20200331210009 47 47 5.0 13.0 0.00 0.18 0.02 87 1013.1
20200331205508 47 52 5.0 13.0 0.00 0.18 0.02 87 1013.2
20200331203509 47 46 6.0 11.0 0.00 0.19 0.02 85 1013.1
20200331201509 48 51 4.0 10.0 0.00 0.20 0.02 82 1013.1
20200331201008 48 57 3.0 9.0 0.00 0.20 0.02 81 1013.1
20200331200508 48 74 3.0 9.0 0.00 0.20 0.02 82 1013.2
20200331195009 48 53 4.0 9.0 0.00 0.20 0.02 81 1013.4
20200331193508 48 65 3.0 8.0 0.00 0.21 0.02 84 1013.6
20200331193010 48 56 2.0 8.0 0.00 0.21 0.02 84 1013.6
20200331192508 48 58 2.0 6.0 0.00 0.21 0.02 84 1013.7
20200331192008 47 60 3.0 6.0 0.00 0.21 0.02 84 1013.8
20200331191009 47 60 3.0 9.0 0.00 0.21 0.02 84 1013.9
20200331190508 47 58 3.0 9.0 0.00 0.21 0.02 84 1014.0
20200331190009 47 49 3.0 8.0 0.00 0.22 0.02 84 1014.0
20200331185009 48 59 4.0 11.0 0.00 0.22 0.02 83 1014.2
20200331181509 48 56 2.0 7.0 0.00 0.22 0.02 81 1014.6
20200331180508 48 30 2.0 5.0 0.00 0.22 0.02 81 1014.7
20200331175509 48 44 2.0 5.0 0.00 0.22 0.02 81 1014.8
20200331174008 48 63 1.0 5.0 0.00 0.22 0.02 83 1015.0
20200331173508 47 57 2.0 5.0 0.00 0.22 0.02 83 1015.0
20200331173009 47 64 2.0 5.0 0.00 0.22 0.02 83 1015.0
20200331172508 47 59 2.0 4.0 0.00 0.22 0.02 82 1015.0
20200331172008 47 56 1.0 3.0 0.00 0.22 0.02 83 1015.1
20200331171508 47 53 2.0 7.0 0.00 0.22 0.02 83 1015.0
20200331171008 47 56 2.0 7.0 0.00 0.22 0.02 83 1015.1
20200331164509 47 43 3.0 8.0 0.00 0.23 0.02 86 1014.8
20200331164009 47 58 2.0 6.0 0.00 0.23 0.02 85 1015.1
20200331162008 47 55 3.0 9.0 0.00 0.23 0.02 86 1015.1
20200331160508 47 51 4.0 11.0 0.00 0.24 0.02 86 1015.3
20200331160009 47 44 3.0 8.0 0.00 0.25 0.02 87 1015.2
20200331155508 47 48 2.0 8.0 0.00 0.25 0.02 87 1015.2
20200331155008 46 50 2.0 7.0 0.00 0.25 0.02 88 1015.1
20200331154509 46 39 2.0 7.0 0.00 0.26 0.02 89 1015.2
20200331153008 46 65 2.0 5.0 0.00 0.26 0.02 90 1015.2
20200331152007 46 42 2.0 5.0 0.00 0.27 0.02 92 1015.3
20200331151008 45 101 1.0 3.0 0.00 0.27 0.02 94 1015.3
20200331150008 45 280 1.0 3.0 0.00 0.27 0.02 96 1015.4
20200331144008 44 220 0.0 2.0 0.00 0.29 0.02 97 1015.8
20200331143508 44 221 0.0 2.0 0.01 0.29 0.02 98 1015.8
20200331142507 43 221 0.0 2.0 0.01 0.29 0.02 97 1015.8
20200331142009 43 221 1.0 3.0 0.01 0.29 0.02 98 1016.0
20200331141008 43 225 1.0 2.0 0.01 0.29 0.02 98 1016.0
20200331140008 42 226 1.0 3.0 0.01 0.29 0.02 98 1016.0
20200331133508 42 227 0.0 2.0 0.00 0.28 0.01 98 1015.8
20200331133009 42 227 0.0 2.0 0.00 0.28 0.01 98 1015.8
20200331131008 42 227 0.0 2.0 0.00 0.28 0.01 98 1015.7
20200331125508 41 229 1.0 3.0 0.00 0.28 0.01 98 1016.0
20200331125008 41 231 1.0 3.0 0.00 0.28 0.01 98 1016.0
20200331124508 41 233 1.0 3.0 0.00 0.28 0.01 98 1016.0
20200331122508 41 235 1.0 2.0 0.00 0.28 0.01 98 1015.9
20200331122008 41 235 1.0 2.0 0.00 0.28 0.01 98 1016.0
20200331121015 41 237 1.0 2.0 0.00 0.28 0.01 98 1016.0
20200331120508 41 237 0.0 2.0 0.00 0.28 0.01 98 1016.0
20200331120008 41 237 1.0 3.0 0.00 0.28 0.01 98 1016.0
20200331113508 41 236 1.0 3.0 0.00 0.28 0.01 98 1015.7
20200331113008 41 237 1.0 3.0 0.00 0.28 0.01 98 1015.8
20200331111508 41 226 1.0 4.0 0.00 0.28 0.01 98 1015.9
20200331111007 41 224 1.0 5.0 0.00 0.28 0.01 97 1016.0
20200331105008 41 239 1.0 4.0 0.01 0.28 0.01 97 1015.9
20200331104512 41 258 1.0 4.0 0.01 0.28 0.01 97 1015.7
20200331104008 41 283 1.0 3.0 0.01 0.28 0.01 97 1015.7
20200331103508 41 268 1.0 4.0 0.01 0.28 0.01 97 1015.6
20200331103008 41 240 1.0 4.0 0.01 0.28 0.01 97 1015.6
20200331102008 41 252 1.0 4.0 0.01 0.28 0.01 97 1015.4
20200331101508 41 264 1.0 2.0 0.01 0.28 0.01 97 1015.2
20200331100508 41 264 1.0 3.0 0.01 0.28 0.01 97 1015.3
20200331095508 41 262 1.0 3.0 0.00 0.27 0.00 97 1015.4
20200331095008 41 261 1.0 2.0 0.00 0.27 0.00 97 1015.3